Regional Weather Roundup
Issued by NWS

Home | Current Version | Previous Version | Graphics & Text | Print | Product List | Glossary On
Versions: 1 2 3 4 5 6 7 8 9 10 11 12 13 14 15 16 17 18 19 20 21 22 23 24 25 26 27 28 29 30 31 32 33 34 35 36 37 38 39 40 41 42 43 44 45 46 47 48 49 50
597
ASUS43 KFSD 061610
RWRSD

WEATHER ROUNDUP FOR SOUTH DAKOTA
NATIONAL WEATHER SERVICE SIOUX FALLS SD
1000 AM CST SAT FEB 06 2016

NOTE: "FAIR" INDICATES FEW OR NO CLOUDS BELOW 12,000 FEET WITH NO
SIGNIFICANT WEATHER AND/OR OBSTRUCTIONS TO VISIBILITY.


SDZ001>005-009-010-012>017-061700-
NORTHWEST AND NORTH CENTRAL SOUTH DAKOTA

CITY           SKY/WX    TMP DP  RH WIND       PRES   REMARKS
BUFFALO          N/A     36  20  52 W15       29.83F
FAITH            N/A     37  21  52 SW8       29.91F
MOBRIDGE       CLOUDY    36  26  67 S8        29.86F
$$

SDZ012>016-024>037-041>051-057-063-072>074-061700-
SOUTHWEST AND SOUTH CENTRAL SOUTH DAKOTA

CITY           SKY/WX    TMP DP  RH WIND       PRES   REMARKS
RAPID CTY ARPT CLOUDY    40  27  59 S6        29.98F
PIERRE         MOSUNNY   33  22  63 SW15      29.96F WCI  23
CUSTER         CLOUDY    35  15  44 W20G30    30.02S WCI  24
ELLSWORTH AFB  CLOUDY    40  27  60 SW6       29.96F
PHILIP         CLOUDY    35  23  61 SW8       29.99F WCI  29
PINE RIDGE     CLOUDY    32  19  58 W13       30.09F WCI  22
SPEARFISH      FAIR      46  19  34 SW17G29   29.95F
WINNER         FAIR      33  20  58 SW12      30.02S WCI  24
$$

SDZ004>011-016>023-039-040-061700-
NORTHEAST SOUTH DAKOTA

CITY           SKY/WX    TMP DP  RH WIND       PRES   REMARKS
ABERDEEN       CLOUDY    32  27  81 S13       29.91F WCI  22
WATERTOWN      CLOUDY    30  23  75 SW12      29.95F WCI  20
BROOKINGS      MOSUNNY   27  25  92 S10       30.00F WCI  17
SISSETON         N/A     35  24  64 W21G30    29.87F WCI  24
$$

SDZ017-020-022-023-036>040-048>070-061700-
SOUTHEAST SOUTH DAKOTA

CITY           SKY/WX    TMP DP  RH WIND       PRES   REMARKS
SIOUX FALLS    PTSUNNY   25  22  88 SW9       30.07F WCI  15
HURON          MOSUNNY   29  23  78 S12       29.99F WCI  19
CHAMBERLAIN    CLOUDY    30  24  77 S5        30.01F WCI  25
MITCHELL       CLOUDY    30  24  78 SW12      30.04F WCI  20
YANKTON        MOSUNNY   23  19  86 S7        30.10F WCI  15
$$

ABBREVIATIONS USED IN REMARKS
   TC - TEMPERATURE IN CELSIUS
  WCI - WIND CHILL INDEX
   HX - HEAT INDEX
  VSB - VISIBILITY





USA.gov is the U.S. government's official web portal to all federal, state and local government web resources and services.